Weather History for Plainview, TX

Change the Weather History Date:

Friday, September 13, 2013

  Actual Average Record
Temperature  
Mean Temperature 74 °F -  
Max Temperature 87 °F 84 °F 99 °F (1930)
Min Temperature 64 °F 58 °F 41 °F (1959)
Cooling Degree Days 10    
Growing Degree Days 24 (Base 50)    
Moisture  
Dew Point 59 °F    
Average Humidity 61    
Maximum Humidity 96    
Minimum Humidity 35    
Precipitation  
Precipitation 0.00 in - - ()
Sea Level Pressure  
Sea Level Pressure 30.07 in    
Wind  
Wind Speed 6 mph (SE)    
Max Wind Speed 17 mph    
Max Gust Speed 24 mph    
Visibility 9 miles    
Events Rain    
Averages and records for this station are not official NWS values.
T = Trace of Precipitation, MM = Missing Value Source: NWS Daily Summary

Daily Weather History Graph

Daily Weather History Graph

Search for Another Location

Airport:

Trip Planner

Search our weather history database for the weather conditions in past years. The results will help you decide how hot, cold, wet, or windy it might be!

Date:

Astronomy

Sep. 13, 2013 Rise Set
Actual Time 7:28 AM CDT 7:55 PM CDT
Civil Twilight 7:03 AM CDT 8:20 PM CDT
Nautical Twilight 6:34 AM CDT 8:50 PM CDT
Astronomical Twilight 6:04 AM CDT 9:20 PM CDT
Moon 3:36 PM CDT (9/13) 1:11 AM CDT (9/13)
Length of Visible Light 13h 17m
Length of Day
12h 27m
First Quarter, 61% of the Moon is Illuminated
Sep 13
First Quarter
Sep 19
Full
Sep 26
Last Quarter
Oct 4
New
Oct 11
First Quarter

Hourly Weather History & Observations

Time (CDT) Temp. Heat Index Dew Point Humidity Pressure Visibility Wind Dir Wind Speed Gust Speed Precip Events Conditions
12:15 AM 70.0 °F - 54.9 °F 59% 30.12 in 10.0 mi SE 4.6 mph - N/A   Mostly Cloudy
12:35 AM 70.0 °F - 55.0 °F 59% 30.12 in 10.0 mi SSE 5.8 mph - N/A   Mostly Cloudy
12:55 AM 70.0 °F - 55.9 °F 61% 30.12 in 10.0 mi SSE 5.8 mph - N/A   Mostly Cloudy
1:15 AM 70.0 °F - 57.2 °F 64% 30.12 in 10.0 mi SSE 5.8 mph - N/A   Scattered Clouds
1:35 AM 70.0 °F - 56.7 °F 63% 30.11 in 10.0 mi SSE 6.9 mph - N/A   Scattered Clouds
1:55 AM 70.0 °F - 58.1 °F 66% 30.11 in 10.0 mi SSE 5.8 mph - N/A   Clear
2:15 AM 70.0 °F - 59.4 °F 69% 30.11 in 10.0 mi SE 4.6 mph - N/A   Mostly Cloudy
2:35 AM 70.0 °F - 59.9 °F 70% 30.11 in 10.0 mi SSE 5.8 mph - N/A   Scattered Clouds
2:55 AM 67.5 °F - 58.1 °F 72% 30.11 in 10.0 mi SSE 5.8 mph - N/A   Scattered Clouds
3:15 AM 67.5 °F - 58.5 °F 73% 30.10 in 10.0 mi SSE 5.8 mph - N/A   Clear
3:35 AM 67.5 °F - 59.0 °F 74% 30.10 in 10.0 mi SSE 4.6 mph - N/A   Clear
3:55 AM 66.9 °F - 59.0 °F 76% 30.10 in 10.0 mi South 4.6 mph - N/A   Mostly Cloudy
4:15 AM 64.9 °F - 57.6 °F 77% 30.10 in 10.0 mi SSE 4.6 mph - N/A   Scattered Clouds
4:35 AM 67.5 °F - 59.5 °F 76% 30.10 in 10.0 mi SSE 5.8 mph - N/A   Clear
4:55 AM 67.5 °F - 59.5 °F 76% 30.09 in 10.0 mi SSE 4.6 mph - N/A   Clear
5:15 AM 65.8 °F - 58.8 °F 78% 30.10 in 10.0 mi SE 3.5 mph - N/A   Scattered Clouds
5:35 AM 67.5 °F - 59.9 °F 77% 30.10 in 10.0 mi SSE 3.5 mph - N/A   Scattered Clouds
5:55 AM 66.0 °F - 59.0 °F 78% 30.10 in 10.0 mi SE 3.5 mph - N/A   Scattered Clouds
6:15 AM 67.6 °F - 59.5 °F 75% 30.11 in 10.0 mi East 4.6 mph - N/A   Mostly Cloudy
6:35 AM 68.4 °F - 60.1 °F 75% 30.11 in 10.0 mi East 4.6 mph - N/A   Mostly Cloudy
6:55 AM 66.0 °F - 58.8 °F 78% 30.11 in 10.0 mi East 3.5 mph - N/A   Scattered Clouds
7:15 AM 64.9 °F - 58.3 °F 79% 30.11 in 10.0 mi East 3.5 mph - N/A   Mostly Cloudy
7:35 AM 65.7 °F - 58.6 °F 78% 30.11 in 10.0 mi East 3.5 mph - N/A   Overcast
7:55 AM 66.7 °F - 59.5 °F 78% 30.11 in 10.0 mi East 4.6 mph - N/A   Mostly Cloudy
8:15 AM 70.0 °F - 61.7 °F 75% 30.11 in 10.0 mi East 5.8 mph - N/A   Mostly Cloudy
8:35 AM 70.0 °F - 61.0 °F 73% 30.11 in 10.0 mi East 6.9 mph - N/A   Scattered Clouds
8:55 AM 70.0 °F - 60.8 °F 73% 30.12 in 10.0 mi ESE 4.6 mph - N/A   Clear
9:15 AM 70.0 °F - 60.1 °F 71% 30.11 in 10.0 mi East 8.1 mph - N/A   Scattered Clouds
9:35 AM 73.6 °F - 62.4 °F 68% 30.12 in 10.0 mi ESE 9.2 mph - N/A   Clear
9:55 AM 75.2 °F - 62.1 °F 64% 30.12 in 10.0 mi ESE 8.1 mph - N/A   Clear
10:15 AM 75.2 °F - 61.9 °F 63% 30.12 in 10.0 mi ESE 6.9 mph - N/A   Clear
10:35 AM 77.5 °F - 61.3 °F 57% 30.12 in 10.0 mi SE 8.1 mph - N/A   Mostly Cloudy
10:55 AM 80.1 °F 80.8 °F 59.2 °F 49% 30.12 in 10.0 mi SSE 3.5 mph - N/A   Overcast
11:15 AM 80.2 °F 80.7 °F 58.3 °F 47% 30.11 in 10.0 mi South 5.8 mph - N/A   Scattered Clouds
11:35 AM 81.7 °F 81.3 °F 56.1 °F 41% 30.11 in 10.0 mi South 4.6 mph - N/A   Clear
11:55 AM 81.0 °F 80.8 °F 55.6 °F 42% 30.11 in 10.0 mi Calm Calm - N/A   Clear
12:15 PM 81.9 °F 81.4 °F 55.9 °F 41% 30.10 in 10.0 mi South 10.4 mph - N/A   Scattered Clouds
12:35 PM 82.9 °F 82.1 °F 55.9 °F 39% 30.10 in 10.0 mi SSE 9.2 mph - N/A   Scattered Clouds
12:55 PM 83.7 °F 82.7 °F 55.8 °F 38% 30.09 in 10.0 mi SSE 8.1 mph - N/A   Scattered Clouds
1:15 PM 83.3 °F 82.5 °F 55.6 °F 39% 30.08 in 10.0 mi SSE 10.4 mph - N/A   Scattered Clouds
1:35 PM 83.5 °F 82.6 °F 55.9 °F 39% 30.07 in 10.0 mi South 9.2 mph - N/A   Mostly Cloudy
1:55 PM 82.6 °F 82.0 °F 56.1 °F 40% 30.06 in 10.0 mi South 6.9 mph - N/A   Mostly Cloudy
2:15 PM 85.1 °F 83.9 °F 55.9 °F 37% 30.05 in 10.0 mi South 5.8 mph 17.3 mph N/A   Scattered Clouds
2:35 PM 85.6 °F 84.3 °F 55.9 °F 36% 30.04 in 10.0 mi SE 10.4 mph 16.1 mph N/A   Scattered Clouds
2:55 PM 83.1 °F 82.2 °F 55.2 °F 38% 30.04 in 7.0 mi SSE 9.2 mph - N/A   Scattered Clouds
3:15 PM 82.6 °F 81.8 °F 55.4 °F 39% 30.02 in 10.0 mi SE 6.9 mph - N/A   Scattered Clouds
3:35 PM 82.6 °F 81.7 °F 54.7 °F 38% 30.02 in 10.0 mi SSE 8.1 mph - N/A   Scattered Clouds
3:55 PM 83.1 °F 82.2 °F 54.9 °F 38% 30.01 in 10.0 mi SE 10.4 mph - N/A   Clear
4:15 PM 82.6 °F 81.7 °F 54.7 °F 38% 30.00 in 10.0 mi SE 8.1 mph - N/A   Clear
4:35 PM 82.6 °F 81.8 °F 55.0 °F 39% 29.99 in 10.0 mi SE 5.8 mph - N/A   Scattered Clouds
4:55 PM 82.6 °F 81.7 °F 54.7 °F 38% 29.99 in 10.0 mi ESE 6.9 mph - N/A   Scattered Clouds
5:15 PM 83.8 °F 82.4 °F 53.8 °F 35% 29.99 in 10.0 mi South 5.8 mph - N/A   Scattered Clouds
5:35 PM 84.6 °F 83.1 °F 54.3 °F 35% 29.98 in 10.0 mi SSE 11.5 mph - N/A   Scattered Clouds
5:55 PM 82.6 °F 81.7 °F 54.5 °F 38% 29.98 in 7.0 mi SE 9.2 mph - N/A   Scattered Clouds
6:15 PM 83.8 °F 82.6 °F 54.5 °F 36% 29.98 in 10.0 mi SE 8.1 mph - N/A   Scattered Clouds
6:35 PM 83.7 °F 82.4 °F 54.0 °F 36% 29.98 in 10.0 mi South 10.4 mph - N/A   Scattered Clouds
6:55 PM 82.6 °F 81.6 °F 54.0 °F 37% 29.98 in 10.0 mi South 9.2 mph - N/A   Scattered Clouds
7:15 PM 81.0 °F 80.4 °F 53.2 °F 38% 29.98 in 10.0 mi South 8.1 mph - N/A   Scattered Clouds
7:35 PM 80.1 °F 80.1 °F 54.1 °F 41% 29.99 in 10.0 mi SSE 5.8 mph - N/A   Scattered Clouds
7:55 PM 77.5 °F - 55.0 °F 46% 29.99 in 5.0 mi SE 4.6 mph - N/A   Haze
8:15 PM 76.3 °F - 62.6 °F 62% 30.00 in 5.0 mi ENE 11.5 mph 18.4 mph N/A   Haze
8:35 PM 75.0 °F - 66.0 °F 73% 30.02 in 7.0 mi East 12.7 mph 19.6 mph N/A   Mostly Cloudy
8:55 PM 70.0 °F - 63.7 °F 80% 30.04 in 10.0 mi East 13.8 mph 21.9 mph N/A   Scattered Clouds
9:15 PM 70.0 °F - 64.8 °F 83% 30.04 in 10.0 mi East 15.0 mph - N/A   Scattered Clouds
9:35 PM 70.0 °F - 66.7 °F 89% 30.06 in 7.0 mi East 15.0 mph 21.9 mph N/A Rain Rain
9:55 PM 67.5 °F - 65.3 °F 93% 30.06 in 4.0 mi East 17.3 mph 24.2 mph N/A Rain Rain
10:15 PM 66.9 °F - 64.9 °F 93% 30.07 in 7.0 mi East 17.3 mph 21.9 mph N/A Rain Rain
10:35 PM 65.1 °F - 63.3 °F 94% 30.07 in 7.0 mi East 10.4 mph 17.3 mph N/A Rain Light Rain
10:55 PM 67.5 °F - 65.8 °F 95% 30.08 in 5.0 mi East 5.8 mph 9.2 mph N/A Rain Light Rain
11:15 PM 67.5 °F - 66.0 °F 95% 30.07 in 7.0 mi ENE 10.4 mph - N/A Rain Light Rain
11:35 PM 67.5 °F - 66.2 °F 96% 30.07 in 5.0 mi East 9.2 mph - N/A   Overcast
11:55 PM 67.5 °F - 66.2 °F 96% 30.06 in 5.0 mi East 9.2 mph - N/A   Overcast